Location: Oshawa
(43.9000°N, 78.8670°W)
Time: 16:54:36
(UTC-04:00)

Daily predictions for brighter satellites

Satellite Brightness Start Highest point End
(mag) Time Altitude Azimuth Time Altitude Azimuth Time Altitude Azimuth
Cosmos 1328 Rocket 3.6 20:34:34 10° S 20:38:59 87° ESE 20:43:28 10° N
Cosmos 2333 Rocket 3.0 20:34:26 10° SW 20:40:01 60° WNW 20:45:38 10° NNE
ATLAS 2AS CENTAUR R/B 3.7 20:34:33 10° NW 20:42:11 55° WSW 20:49:11 10° SSE
Cosmos 2237 Rocket 2.2 20:38:00 10° SSW 20:43:37 88° ESE 20:49:18 10° NNE
H-2A R/B 3.8 20:42:08 10° E 20:44:44 14° ENE 20:47:20 10° NNE
SJ-6B 3.2 20:41:43 10° S 20:45:40 67° WSW 20:49:33 10° NNW
Cosmos 2056 Rocket 3.8 20:41:04 10° S 20:46:14 48° ESE 20:51:23 10° NNE
Cosmos 1869 3.7 20:46:01 10° SSE 20:49:50 44° E 20:53:41 10° NNE
CZ-2D R/B 4.0 20:48:16 10° S 20:52:00 55° W 20:55:47 10° NNW
Cosmos 2278 Rocket 2.7 20:47:49 10° NNW 20:53:26 62° WSW 20:59:00 10° S
Cosmos 2228 Rocket 3.1 20:52:43 10° S 20:57:07 88° W 21:01:33 10° N
Cosmos 1470 Rocket 3.9 20:53:17 10° NNW 20:57:43 74° W 21:02:09 10° S
Cosmos 1190 Rocket 4.1 20:55:40 10° NNW 21:00:56 66° ENE 21:06:09 10° SSE
Cosmos 1825 2.1 20:57:13 10° N 21:01:01 87° E 21:04:48 10° S
Cosmos 1624 Rocket 3.9 20:57:01 10° S 21:02:10 69° ESE 21:07:20 10° NNE
Meteor 2-10 Rocket 3.9 21:00:32 10° S 21:06:08 56° E 21:11:51 10° NNE
CZ-4C R/B 3.0 21:02:29 10° SSE 21:06:40 26° ESE 21:11:17 10° ENE
Cosmos 1151 Rocket 3.4 21:04:20 10° SSW 21:08:35 67° W 21:12:52 10° N
Spot 2 Rocket 3.5 21:03:52 10° SSE 21:08:55 68° ENE 21:13:59 10° N
Cosmos 1408 3.1 21:06:00 10° NNW 21:09:39 61° W 21:13:18 10° S
Cosmos 1939 Rocket 3.0 21:07:33 10° S 21:11:25 72° WSW 21:15:23 10° NNW
Cosmos 405 Rocket 3.4 21:09:08 10° SSE 21:12:39 34° E 21:16:16 10° NNE
NOSS 3-4 (A) 3.9 21:06:10 10° NW 21:13:14 90° NE 21:20:28 12° SE
NOSS 3-4 (C) 3.9 21:06:16 10° NW 21:13:20 89° NE 21:20:33 12° SE
Cosmos 2098 Rocket 2.6 21:10:32 10° S 21:14:38 66° E 21:18:00 10° NNE
Cosmos 405 2.9 21:12:09 10° N 21:15:38 64° ENE 21:18:48 12° SSE
Cosmos 1943 Rocket 4.0 21:14:08 10° N 21:17:33 16° NE 21:20:57 10° E
ARGOS 3.9 21:13:48 14° SE 21:17:54 36° ENE 21:22:46 10° N
ATLAS CENTAUR R/B 4.3 21:15:26 10° W 21:18:03 18° NW 21:20:47 10° N
Cosmos 614 Rocket 4.3 21:15:05 10° N 21:20:11 51° ENE 21:24:04 16° SE
Thor Agena Rocket 4.1 21:18:20 10° N 21:23:32 63° WNW 21:28:45 10° SSW
SAR-Lupe-3 4.5 21:21:50 10° NNE 21:25:27 84° ESE 21:29:01 10° SSW
Resurs 01 Rocket 2.2 21:23:39 10° S 21:28:01 59° W 21:32:25 10° NNW
Lacrosse 5 3.0 21:23:43 10° NW 21:28:23 35° NNE 21:32:11 14° E
YAOGAN 6 4.1 21:26:01 10° SSW 21:29:23 36° W 21:32:50 10° NNW
Cosmos 1437 Rocket 4.3 21:27:42 10° NNE 21:30:44 21° ENE 21:31:53 19° E
ERS-1 Rocket 3.8 21:29:44 19° ESE 21:32:34 33° ENE 21:37:02 10° N
SPOT 5 4.3 21:33:15 16° E 21:34:53 20° ENE 21:38:01 10° NNE
Cosmos 1727 Rocket 4.0 21:29:41 10° N 21:35:54 89° E 21:42:05 10° S
ERS-2 4.4 21:34:27 10° SSW 21:37:24 23° W 21:40:23 10° NW
SL-16 R/B 2.3 21:32:00 10° SSW 21:37:40 84° WNW 21:43:22 10° NNE
Cosmos 1707 Rocket 3.6 21:37:18 14° S 21:40:51 55° E 21:45:06 10° NNE
Cosmos 1420 Rocket 4.2 21:39:26 10° S 21:44:33 51° ESE 21:49:43 10° NNE
Cosmos 1862 3.3 21:41:47 10° N 21:45:49 86° W 21:48:34 20° S
Cosmos 407 Rocket 4.2 21:41:28 10° NNW 21:46:26 51° WSW 21:51:12 11° S
Cosmos 1869 Rocket 3.6 21:44:58 10° N 21:49:20 80° W 21:52:31 18° S
MetOp-A 4.1 21:47:19 22° SSE 21:50:50 69° ENE 21:56:11 10° N
SL-8 R/B 4.5 21:47:12 10° W 21:51:53 50° N 21:56:33 10° ENE
Cosmos 1733 Rocket 3.8 21:51:36 10° N 21:55:38 35° ENE 21:56:38 31° ESE
Cosmos 2344 3.5 21:52:49 10° SSW 22:00:22 71° ESE 22:08:40 10° NE
Cosmos 1633 3.9 21:58:50 10° NNE 22:01:38 25° ENE 22:01:38 25° ENE
RESURS DK-1 3.5 21:58:44 10° N 22:02:25 30° NE 22:03:23 27° E
Cosmos 1943 3.9 22:03:14 30° ESE 22:03:58 31° ESE 22:08:54 10° NE
Cosmos 1603 3.7 21:59:55 10° S 22:05:24 56° ESE 22:10:53 10° NNE
Cosmos 1606 4.4 22:09:09 20° ENE 22:09:09 20° ENE 22:11:10 10° NE
Cosmos 1241 Rocket 4.4 22:02:20 10° NNW 22:08:41 89° WSW 22:12:00 31° SSE
Cosmos 2369 Rocket 2.7 22:03:17 10° NNW 22:08:47 47° ENE 22:10:58 32° ESE
OE (NEXTSAT) 4.4 22:06:03 10° WNW 22:09:34 61° SSW 22:09:53 57° S
Meteor 1-4 Rocket 3.6 22:07:31 10° N 22:10:16 29° ENE 22:10:16 29° ENE
GENESIS II 4.1 22:11:04 10° NNW 22:15:02 76° NE 22:15:43 58° ESE
SPOT 1/Viking Rocket 3.9 22:14:27 36° ESE 22:16:05 49° ENE 22:21:06 10° N
Helios 1B rocket 3.4 22:12:39 10° NNE 22:15:41 30° ENE 22:15:41 30° ENE
ATLAS 5 CENTAUR R/B 2.7 22:13:39 10° NNW 22:19:26 58° NE 22:22:08 34° ESE
SL-08 RB Rocket 3.7 22:19:22 39° S 22:21:01 79° WSW 22:25:30 10° NNW
Gblst 52 Del rocket 4.0 22:16:49 10° SW 22:22:25 86° SE 22:27:57 10° ENE
H-2A R/B 2.0 22:21:21 34° S 22:23:33 78° WSW 22:28:30 10° NNW
CZ-2C R/B 4.4 22:24:05 20° ENE 22:24:39 21° ENE 22:28:14 10° NNE
Cosmos 1605 Rocket 4.4 22:24:02 37° SE 22:25:50 46° E 22:31:54 10° NNE
Cosmos 1140 Rocket 4.4 22:21:50 10° NNW 22:26:42 43° WSW 22:29:28 23° SSW
DMSP B5D2-2 4.1 22:22:20 10° NNE 22:27:32 57° E 22:28:49 45° SSE
Terra 2.7 22:27:36 32° E 22:28:07 33° ENE 22:32:21 10° N
Cosmos 1452 Rocket 4.1 22:23:30 10° SW 22:28:39 57° WNW 22:33:50 10° NNE
Cosmos 1850 Rocket 4.1 22:39:24 10° NNW 22:44:33 66° WSW 22:45:52 48° SSW
Cosmos 921 Rocket 3.0 22:43:47 59° SW 22:44:33 80° WNW 22:48:52 10° NNE
Cosmos 1934 Rocket 3.8 22:41:52 33° S 22:44:45 88° W 22:50:51 10° N
Cosmos 1782 3.8 22:47:54 36° NE 22:47:54 36° NE 22:50:35 10° NNE
Cosmos 2242 Rocket 3.6 22:46:07 57° SW 22:46:55 74° W 22:51:21 10° N
Meteor 1-14 Rocket 4.2 22:47:09 10° NNW 22:52:42 78° W 22:54:06 52° S
Cosmos 1908 Rocket 3.8 22:49:37 10° N 22:53:43 60° NE 22:53:43 60° NE
CZ-4C R/B 2.9 22:49:33 10° WSW 22:54:40 52° NW 23:00:38 10° NNE
Cosmos 1741 Rocket 4.4 22:50:16 10° NNW 22:55:28 55° WSW 22:56:42 45° SSW
Cosmos 1461 3.4 22:51:04 10° NNW 22:55:47 55° NE 22:55:57 55° ENE
Helios 1A 3.5 22:56:13 49° WSW 22:56:32 50° W 23:00:37 10° NNW
Cosmos 1174 4.2 22:54:42 26° SW 22:57:21 71° WNW 23:01:24 10° NNE
Cosmos 1862 Rocket 3.9 22:57:22 56° WSW 22:57:58 63° W 23:02:20 10° N
Meteor 1-25 Rocket 4.3 22:53:56 10° NNW 22:59:38 72° W 23:00:59 52° SSW
Cosmos 1656 Rocket 4.5 22:54:21 10° NNW 22:59:38 38° NE 23:00:28 36° ENE
ATLAS 2A CENTAUR R/B 4.4 22:46:19 10° WSW 23:01:16 33° SSW 23:03:00 31° S
Cosmos 1943 Rocket 2.0 22:56:33 10° NNW 23:02:08 86° ENE 23:02:48 70° SE
USA 267 3.8 22:58:38 10° ENE 23:03:05 37° E 23:03:05 37° E
SL-19 R/B 4.3 23:04:58 58° S 23:06:02 75° WSW 23:11:43 10° NNW
Cosmos 1437 Rocket 4.3 23:03:37 10° NNW 23:07:01 29° W 23:07:20 28° WSW
IGS 5A 3.8 23:10:34 63° NNW 23:10:34 63° NNW 23:14:08 10° NNW
Spot 1 4.4 23:10:06 68° WSW 23:10:14 69° WSW 23:14:50 10° NNW
ERS-1 Rocket 4.3 23:09:44 26° SW 23:11:19 31° W 23:15:47 10° NNW
Lacrosse 5 2.1 23:06:36 10° NW 23:11:23 56° WSW 23:11:23 56° WSW
SPOT 5 3.4 23:12:29 44° WSW 23:12:42 44° W 23:16:55 10° NNW
Meteor 1-20 Rocket 4.5 23:07:31 10° NNW 23:12:54 60° W 23:13:54 51° SW
Cosmos 1153 Rocket 4.4 23:15:50 65° SSE 23:16:44 76° E 23:23:06 10° N
Meteor 2-6 Rocket 4.2 23:17:46 73° ESE 23:18:02 74° E 23:23:58 10° NNE
Cosmos 1331 Rocket 4.0 23:26:27 79° W 23:26:32 79° WNW 23:31:50 10° NNE
Cosmos 2100 Rocket 4.0 23:30:48 62° E 23:30:52 62° E 23:37:09 10° NNE
Meteor 1-10 Rocket 4.2 23:33:38 75° SW 23:34:08 82° WNW 23:40:07 10° N
SL-8 R/B 4.2 23:30:09 10° WNW 23:34:32 57° N 23:34:32 57° N
Cosmos 1802 Rocket 4.3 23:37:54 52° ENE 23:37:54 52° ENE 23:43:31 10° NNE
USA 234 4.1 23:36:00 26° E 23:39:15 45° NNE 23:45:24 10° NW
RESURS DK-1 4.3 23:36:54 10° NW 23:39:18 23° W 23:39:18 23° W
Okean 1-7 4.2 23:46:32 40° N 23:46:32 40° N 23:49:23 10° N
Cosmos 2061 Rocket 4.1 23:46:00 63° E 23:46:00 63° E 23:52:10 10° NNE
Cosmos 1943 4.3 23:44:56 24° WSW 23:47:51 42° WNW 23:53:15 10° NNE
CZ-2C R/B 2.9 23:43:21 10° NNE 23:47:57 62° NE 23:47:57 62° NE
Cosmos 1486 Rocket 4.2 23:45:02 10° NNW 23:49:38 68° NNW 23:49:38 68° NNW
Cosmos 2369 Rocket 3.6 23:47:50 10° NW 23:52:31 27° WSW 23:52:46 27° WSW
SeaSat 1 4.5 23:52:36 17° ENE 23:53:25 18° NE 23:56:41 10° N
